Home   Weather   Asker   Past weeks

Flag for Norway Past Weather in Asker, Norway — Yesterday and Last 2 Weeks

Now
54 °F

Partly sunny.


Feels Like: 47 °F
Forecast: 44 / 59 °F
Wind: 28 mph from Northwest

Location: Statfjord B

Current Time: Sep 28, 2016 at 10:34:22 AM

Latest Report: Sep 28, 2016 at 9:50 AM


Visibility: N/A

Pressure: 29.59 "Hg

Humidity: 82%

Dew Point: 48 °F

Location of AskerLocation

Past Weather in Asker — Graph

°F

Asker Temperature Yesterday

Maximum temperature yesterday: 55 °F (at 12:50 AM)
Minimum temperature yesterday: 50 °F (at 8:50 PM)
Average temperature yesterday: 55 °F

High & Low Weather Summary for the Past Weeks

 TemperatureHumidityPressure
High70 °F (Sep 16, 6:20 AM)100% (Sep 13, 9:20 AM)30.21 "Hg (Sep 13, 9:20 AM)
Low50 °F (Sep 14, 6:50 AM)60% (Sep 16, 6:20 AM)29.33 "Hg (Sep 27, 11:20 PM)
Average56 °F91%29.94 "Hg
* Reported Sep 13 9:20 AM — Sep 28 9:20 AM, Asker, Weather by CustomWeather, © 2016

Note: Actual official high and low records may vary slightly from our data, if they occured in-between our weather recording intervals... More about our weather records

Advertising

Asker Weather History for the Previous 24 Hours

Scroll right to see more
 ConditionsComfort  
Time TempWeatherWind HumidityBarometerVisibility
9:20 AM
Wed, Sep 28
54 °FPartly sunny.28 mph82%29.56 "HgN/A
8:50 AM54 °FPartly sunny.25 mph88%29.53 "HgN/A
8:20 AM52 °FPartly sunny.29 mph88%29.50 "HgN/A
7:50 AM52 °FPartly sunny.26 mph88%29.47 "HgN/A
7:20 AM52 °FPartly sunny.28 mph88%29.45 "HgN/A
6:50 AM52 °FPassing clouds.28 mph88%29.45 "HgN/A
6:20 AM52 °FPassing clouds.29 mph88%29.42 "HgN/A
5:50 AM52 °FPassing clouds.29 mph88%29.42 "HgN/A
5:20 AM52 °FLight rain. Passing clouds.30 mph94%29.39 "Hg6 mi
4:50 AM52 °FPassing clouds.30 mph94%29.39 "HgN/A
4:20 AM52 °FPassing clouds.25 mph94%29.36 "HgN/A
3:50 AM54 °FPassing clouds.29 mph88%29.36 "HgN/A
3:20 AM52 °FSprinkles. Passing clouds.33 mph94%29.33 "HgN/A
2:50 AM54 °FPassing clouds.39 mph88%29.33 "HgN/A
1:50 AM52 °FLight rain. Partly cloudy.43 mph94%29.33 "Hg6 mi
1:20 AM52 °FSprinkles. Fog.44 mph94%29.33 "Hg3 mi
12:50 AM52 °FSprinkles. Passing clouds.47 mph94%29.33 "Hg5 mi
12:20 AM54 °FSprinkles. Overcast.46 mph88%29.33 "Hg5 mi
11:50 PM
Tue, Sep 27
54 °FSprinkles. Passing clouds.45 mph88%29.33 "HgN/A
11:20 PM54 °FPassing clouds.47 mph94%29.33 "Hg6 mi
10:50 PM54 °FRain showers. Fog.39 mph94%29.36 "Hg1 mi
10:20 PM54 °FSprinkles. Passing clouds.45 mph88%29.36 "HgN/A
9:50 PM54 °FLight rain. Passing clouds.39 mph94%29.39 "Hg4 mi
9:20 PM52 °FLight rain. Fog.37 mph94%29.39 "Hg2 mi
8:50 PM50 °FSprinkles. Fog.43 mph94%29.42 "Hg1 mi
8:20 PM52 °FRain showers. Fog.46 mph94%29.42 "Hg1 mi
7:50 PM54 °FPassing clouds.40 mph88%29.42 "HgN/A
7:20 PM54 °FLight rain. Passing clouds.47 mph88%29.39 "Hg4 mi
6:50 PM55 °FPartly sunny.41 mph82%29.42 "HgN/A
6:20 PM55 °FPartly sunny.52 mph77%29.39 "HgN/A
5:50 PM55 °FPartly sunny.47 mph77%29.39 "Hg6 mi
5:20 PM55 °FPartly sunny.48 mph77%29.39 "HgN/A
4:50 PM55 °FPartly sunny.48 mph82%29.39 "HgN/A
4:20 PM55 °FPartly sunny.47 mph88%29.36 "HgN/A
3:50 PM55 °FRain. Fog.54 mph94%29.36 "Hg2 mi
3:20 PM55 °FRain. Fog.69 mph100%29.36 "Hg1 mi
2:50 PM55 °FRain. Partly sunny.48 mph100%29.45 "Hg1 mi
2:20 PM55 °FLight rain. Partly sunny.47 mph94%29.50 "Hg2 mi
1:50 PM55 °FLight rain. Partly sunny.46 mph94%29.56 "Hg4 mi
1:20 PM55 °FLight rain. Broken clouds.50 mph94%29.62 "Hg4 mi
12:50 PM55 °FLight rain. Partly sunny.47 mph94%29.65 "HgN/A
12:20 PM55 °FPartly sunny.44 mph94%29.68 "HgN/A
11:50 AM55 °FPartly sunny.44 mph94%29.71 "HgN/A
11:20 AM55 °FSprinkles. Partly sunny.38 mph94%29.74 "HgN/A
10:50 AM55 °FBroken clouds.35 mph88%29.77 "HgN/A
10:20 AM55 °FBroken clouds.33 mph94%29.80 "HgN/A
Weather by CustomWeather, © 2016

See weather overviewHow to use our weather pages